User: anonymous   Login
Location: Rancho Del Sol Observatory
(38.7214°N, 120.6350°W)
Time: 20:38:47
(UTC-08:00)
Language:

S-56A Canister/Altair - Orbit

View from above orbital plane
View from above orbital plane
View from above satellite
View from above satellite

Ground track
Ground track

The orbit data is extracted from the following two-line orbital elements,

1    82U 61004B   20022.42932915 -.00000026 +00000-0 +28981-4 0  9993
2    82 038.8576 022.7788 1173554 093.9912 279.5449 12.26059660789766
Epoch (UTC): 22 January 2020 10:18:14
Eccentricity: 0.1173554
inclination: 38.8576°
perigee height: 634 km
apogee height: 2498 km
right ascension of ascending node: 22.7788°
argument of perigee: 93.9912°
revolutions per day: 12.26059660
mean anomaly at epoch: 279.5449°
orbit number at epoch: 78976

The dashed part of the orbit path shows where the satellite is in the earth's shadow,  

DLR